Regional Weather Roundup
Issued by NWS

Home | Current Version | Previous Version | Graphics & Text | Print | Product List | Glossary On
Versions: 1 2 3 4 5 6 7 8 9 10 11 12 13 14 15 16 17 18 19 20 21 22 23 24 25 26 27 28 29 30 31 32 33 34 35 36 37 38 39 40 41 42 43 44 45 46 47 48 49 50
000
ASUS43 KIND 220059
RWRIN

WEATHER ROUNDUP FOR INDIANA
NATIONAL WEATHER SERVICE INDIANAPOLIS IN
900 PM EDT THU MAY 21 2015

NOTE: "FAIR" INDICATES FEW OR NO CLOUDS BELOW 12,000 FEET WITH NO
SIGNIFICANT WEATHER AND/OR OBSTRUCTIONS TO VISIBILITY.

* - STATION DOES NOT REPORT WEATHER SUCH AS PRECIPITATION OR FOG.

+ - STATION NOT QUALITY CONTROLLED BY THE NATIONAL WEATHER SERVICE.
    USE DATA WITH CAUTION...ESPECIALLY DEWPOINT AND RELATIVE
    HUMIDITY OBSERVATIONS.

INZ001>003-010>013-019-020-220200-
NORTHWEST INDIANA

CITY           SKY/WX    TMP DP  RH WIND       PRES   REMARKS
GARY /AIRPORT/ CLEAR     66  34  30 W14       30.03S

$$

LMZ046-743>745-220200-
SOUTHERN LAKE MICHIGAN

STATION/POSITION TIME  TEMP    WIND        PRES    WAVE
                       AIR SEA DIR/SP/G            HT
                 (UTC) (F)     (DEG/KT/KT) (MB)    (FT)
BURNS HARBOR     0000   64     230/  5/  5 1017.3S
MICHIGAN CITY    0000   62     210/  8/  8   N/A
5NW MICH CITY    0000   58 53  210/  6/  6   N/A     0

$$

INZ004-005-014>016-021>024-220200-
NORTH CENTRAL INDIANA

CITY           SKY/WX    TMP DP  RH WIND       PRES   REMARKS
ELKHART        CLEAR     59  32  36 SW6       30.02S
GOSHEN         CLEAR     54  36  50 W8        30.03R
SOUTH BEND     CLEAR     59  33  37 SW7       30.03S

$$

INZ006>009-017-018-025>027-220200-
NORTHEAST INDIANA

CITY           SKY/WX    TMP DP  RH WIND       PRES   REMARKS
ANGOLA *+      CLEAR     57  43  58 W5        30.02R
FORT WAYNE     CLEAR     55  39  54 W8        30.05R

$$

INZ028-029-035-036-043>045-051>053-220200-
WEST CENTRAL INDIANA

CITY           SKY/WX    TMP DP  RH WIND       PRES   REMARKS
GREENCASTLE +  CLEAR     54  37  54 CALM      30.11S
LAFAYETTE      CLEAR     59  37  44 W3        30.07R
TERRE HAUTE    CLEAR     59  42  53 W7        30.11S

$$

INZ030>032-037>040-046>048-054>057-064-065-220200-
CENTRAL INDIANA

CITY           SKY/WX    TMP DP  RH WIND       PRES   REMARKS
COLUMBUS       CLEAR     54  41  62 SW7       30.11
GREENWOOD *+   CLEAR     59  32  36 W6        30.10R
INDIANAPOLIS   CLEAR     56  37  49 W8        30.08R
-EAGLE CREEK   CLEAR     60  36  40 SW5       30.08R
KOKOMO *+      CLEAR     57  39  51 W6        30.06S
MT COMFORT *+  CLEAR     55  27  33 W7        30.09R
SHELBYVILLE    CLEAR     59  38  45 W6        30.09R

$$

INZ033-034-041-042-049-050-058-059-220200-
EAST CENTRAL INDIANA

CITY           SKY/WX    TMP DP  RH WIND       PRES   REMARKS
MUNCIE         CLEAR     57  38  48 W6        30.07R

$$

INZ060-061-067>069-081>083-085>088-220200-
SOUTHWEST INDIANA

CITY           SKY/WX    TMP DP  RH WIND       PRES   REMARKS
EVANSVILLE     CLEAR     56  43  61 CALM      30.17R
HUNTINGBURG *+ CLEAR     54  43  66 NW6       30.16R

$$

INZ062-063-066-070>080-084-089>092-220200-
SOUTH CENTRAL AND SOUTHEAST INDIANA

CITY           SKY/WX    TMP DP  RH WIND       PRES   REMARKS
BLOOMINGTON    CLEAR     56  43  61 W5        30.12R
MADISON *+     CLEAR     54  41  62 CALM      30.13S
SEYMOUR +      CLEAR     54  43  66 W7        30.12R

$$




USA.gov is the U.S. government's official web portal to all federal, state and local government web resources and services.